Temp
26 24 25 24 24 24 24 25 25 23 22 21 19 20 22 18 17 16 16 15 15 15 17 16 14 12 12 11 10 10 10 9 9 9 9 8 8 8 7 7 6 6 6 5
25 24 24 24 24 24 24 24 25 22 21 20 20 21 21 18 17 16 16 16 16 15 14 15 14 13 12 12 11 10 10 9 9 8 8 7 7 7 7 7 7 6 6 5
25 23 24 24 24 24 24 24 22 22 22 20 20 19 20 21 19 17 17 17 17 15 15 13 14 13 13 12 11 10 10 9 9 8 8 8 8 8 8 7 7 6 6 6
23 23 23 23 23 23 22 21 22 22 21 21 21 19 21 20 19 17 16 15 16 15 15 15 15 14 13 12 11 10 9 9 8 8 7 8 7 8 7 7 7 6 6 6
22 23 22 23 21 22 21 21 21 21 19 20 21 19 23 18 18 17 16 15 15 15 14 14 15 14 13 12 11 10 9 9 8 7 7 7 7 7 7 7 7 7 6 6
21 21 21 21 21 21 20 20 20 21 19 19 22 22 20 19 21 20 18 16 15 15 14 15 16 15 13 12 11 10 9 9 8 7 7 6 6 6 6 6 6 7 6 6
22 21 20 20 20 20 19 20 20 20 19 22 22 21 20 23 23 22 19 17 15 15 14 13 13 14 13 11 10 9 9 9 8 7 7 7 6 6 6 6 6 6 6 6
24 21 20 20 20 19 21 21 20 21 20 21 21 19 23 21 20 19 20 17 16 15 14 12 13 13 12 11 10 9 9 9 9 8 8 7 7 6 6 6 7 6 6 6
25 20 19 19 19 19 21 20 20 20 23 20 21 23 22 20 19 18 18 19 15 14 13 12 14 13 12 12 11 10 9 9 9 8 8 7 7 6 7 6 6 6 6 6
23 22 20 17 18 18 18 19 19 18 18 20 23 26 24 19 18 17 16 15 14 14 13 12 13 13 13 12 11 10 10 9 9 8 8 7 7 7 7 6 6 6 6 6
23 23 18 18 18 20 17 19 19 19 19 18 19 21 25 23 20 19 16 16 14 14 13 12 13 14 13 12 11 11 10 9 9 8 8 7 7 7 7 7 6 6 6 6
22 22 22 21 18 18 18 19 21 16 20 17 14 16 25 23 24 23 19 17 15 14 13 12 14 14 13 12 12 11 10 9 9 8 8 7 7 7 7 7 7 7 6 6
21 20 21 19 18 18 18 19 19 18 17 16 15 18 22 23 22 22 21 18 16 14 13 12 12 13 13 12 11 11 10 9 9 8 8 8 7 7 7 7 7 7 6 6
19 21 22 20 22 20 19 18 18 18 13 15 16 21 22 21 20 20 19 18 16 14 14 12 11 12 13 12 12 11 10 10 9 9 8 8 7 7 7 7 7 6 6 6
19 20 22 22 23 22 21 20 16 15 19 18 21 20 21 21 21 20 20 18 17 16 14 13 11 11 13 13 12 11 11 10 9 9 8 8 8 7 7 7 6 6 6 6
18 19 22 21 22 22 21 19 19 17 17 18 19 19 21 20 20 20 19 19 17 16 15 14 13 13 13 13 12 12 11 10 10 9 8 8 8 7 7 6 6 6 6 6
18 17 19 18 22 21 18 19 19 19 19 19 17 20 20 19 18 18 18 18 18 17 15 14 13 13 13 13 13 12 11 10 10 9 8 8 8 8 7 7 6 6 6 6
19 18 17 15 20 17 20 21 21 20 20 19 19 19 18 18 17 16 16 17 17 17 16 14 14 14 14 14 13 12 11 10 10 9 8 8 8 8 7 7 6 6 6 6
18 18 13 14 16 20 21 21 18 18 21 20 19 20 19 17 16 18 15 15 15 16 16 17 17 15 15 14 13 12 11 10 9 9 8 8 8 8 7 7 6 6 6 6
16 17 13 13 14 16 22 19 19 19 17 19 19 18 18 16 16 16 17 16 15 15 16 17 17 16 14 13 13 12 10 10 9 9 8 8 8 8 7 7 6 6 6 6
13 12 12 13 14 17 21 17 17 19 17 18 19 19 18 16 16 15 15 15 16 15 14 16 16 15 14 13 12 11 10 9 9 9 8 8 8 8 7 7 6 6 6 5
13 12 11 12 13 15 17 16 17 17 19 18 18 19 18 16 15 15 14 14 14 14 14 14 14 14 14 13 12 10 9 9 9 9 8 8 7 7 7 6 6 6 5 5
15 16 13 14 16 19 16 19 17 17 17 19 18 18 17 16 15 14 14 14 14 15 13 13 13 13 13 13 12 10 9 9 9 9 8 8 7 7 6 6 6 5 5 5
19 19 16 18 18 19 18 17 17 15 16 17 18 18 16 15 14 14 13 14 13 15 14 13 12 11 11 12 11 11 10 9 9 9 8 7 7 6 6 6 6 5 5 5
18 18 17 17 18 18 19 19 19 17 18 18 17 16 15 15 13 13 13 13 14 15 15 14 12 11 11 11 11 10 10 9 9 8 8 7 6 6 6 6 6 5 5 5
17 17 16 17 20 18 19 18 18 18 18 17 16 16 15 14 13 13 12 14 14 14 15 13 13 12 11 11 11 10 9 9 9 8 7 7 6 6 6 6 5 5 5 5
Height
808 822 825 821 820 823 825 824 823 824 827 834 835 829 820 830 834 838 839 840 843 846 848 853 858 862 864 866 866 867 867 867 868 868 867 868 868 869 868 867 866 864 862 861
816 826 822 816 819 824 825 827 823 826 828 836 830 825 816 822 827 832 833 835 837 841 844 848 854 858 860 862 864 865 865 866 866 867 867 868 868 868 867 866 865 864 862 861
821 825 819 821 822 825 823 824 832 833 827 825 832 828 817 810 817 824 826 827 829 834 838 842 848 853 857 859 859 862 863 864 865 864 865 866 866 865 866 865 864 863 862 860
824 822 823 825 826 825 836 830 831 834 838 839 827 849 816 816 818 821 823 825 826 828 831 837 843 850 854 856 858 859 862 863 864 864 864 865 866 864 864 864 863 862 861 859
830 826 828 829 832 828 835 832 833 835 843 841 828 847 810 818 824 819 818 819 821 823 827 833 838 843 848 851 854 857 859 860 861 862 863 864 864 864 863 863 861 861 860 858
824 822 826 831 830 831 831 834 834 833 842 851 817 828 827 820 804 800 806 811 816 819 823 829 834 838 843 847 851 854 855 856 858 859 861 862 863 862 861 860 860 859 858 857
824 826 829 828 833 833 836 838 848 851 855 840 819 831 815 793 787 789 801 807 811 815 820 824 829 835 840 844 847 850 852 853 855 857 858 859 859 860 859 859 859 858 856 855
825 839 832 829 831 837 830 835 847 852 854 841 827 840 803 790 791 795 795 802 808 814 817 821 825 828 833 838 842 845 847 849 852 854 855 856 857 857 857 857 857 856 855 854
818 837 837 836 833 835 833 842 835 842 821 844 822 801 798 798 800 801 802 802 808 810 815 819 823 826 830 833 837 840 843 846 848 850 851 853 854 854 854 854 854 853 852 851
814 830 830 839 840 837 838 836 844 848 860 849 813 795 801 806 803 803 805 806 806 807 811 814 818 824 828 831 834 837 839 842 844 846 847 849 850 850 851 851 850 850 848 848
813 817 842 837 841 835 846 840 840 840 841 857 850 820 782 783 790 793 797 797 800 802 805 808 812 817 823 828 830 833 835 838 839 841 843 845 846 846 847 847 847 845 844 843
813 819 827 826 831 830 833 834 827 857 840 845 862 841 774 778 774 776 783 786 791 794 798 802 807 811 816 822 826 828 830 832 834 836 838 840 841 842 842 842 842 842 841 840
816 825 831 838 839 835 835 829 830 834 843 849 863 830 783 777 778 775 776 780 784 789 794 797 802 805 809 814 818 823 827 828 831 833 834 836 836 837 838 838 839 838 838 837
818 817 820 832 818 820 833 829 830 834 862 844 833 805 786 783 784 779 777 776 778 781 787 793 796 799 803 807 811 815 820 824 827 829 830 831 832 833 834 835 835 835 835 834
822 825 812 808 802 809 816 817 830 838 818 824 801 803 783 781 779 774 768 768 771 775 779 785 790 793 797 801 805 808 811 815 819 823 825 826 828 830 831 832 832 832 832 831
819 825 809 815 807 806 812 811 811 817 811 810 804 800 779 775 772 771 769 766 767 767 771 776 782 787 790 794 798 802 805 808 812 815 818 821 823 825 826 828 828 828 828 828
822 825 822 826 804 809 822 803 798 795 793 795 808 784 774 776 774 772 768 763 763 764 765 769 773 777 782 786 790 794 799 804 807 809 812 815 817 819 821 823 824 824 824 824
812 818 822 837 815 835 790 776 776 782 779 784 782 778 778 777 773 771 766 763 763 763 760 762 765 770 775 780 785 788 793 798 802 804 806 809 811 813 816 818 818 819 820 820
806 812 837 838 827 799 783 775 786 787 776 768 776 773 774 773 774 768 766 763 764 761 759 756 758 762 769 774 779 785 788 792 795 798 801 803 805 808 810 812 813 814 815 816
810 811 831 833 833 821 772 774 772 776 792 768 770 773 773 775 782 773 766 763 762 761 759 758 757 760 765 770 775 779 783 786 787 790 794 798 801 802 804 806 808 809 810 810
823 829 833 827 825 794 766 774 775 790 786 765 767 768 771 777 773 768 763 762 761 760 758 758 758 759 761 766 771 774 777 777 781 785 788 791 795 797 799 802 803 805 806 806
806 820 832 828 827 810 769 779 782 769 762 762 763 764 767 769 768 766 763 760 759 758 758 757 757 758 760 762 765 768 769 772 778 781 783 785 788 791 794 796 798 800 801 802
791 783 800 798 789 762 764 758 759 759 762 762 762 761 762 764 765 765 763 760 757 756 756 755 755 755 756 758 760 761 763 769 772 776 778 781 784 786 788 790 793 795 796 797
759 758 772 770 760 759 758 756 757 758 759 759 758 759 760 762 761 759 758 756 756 753 752 752 753 752 752 752 752 753 758 763 767 768 772 775 779 782 784 785 787 789 791 792
758 755 761 761 755 754 750 748 748 751 753 755 757 757 756 757 757 757 755 752 750 749 748 747 746 746 746 748 748 749 753 757 760 762 766 769 772 775 778 779 781 782 784 786
752 752 759 755 744 749 749 747 747 751 752 752 752 752 751 752 753 751 751 748 746 744 742 741 740 740 740 741 742 745 747 750 753 756 759 761 764 767 770 773 775 778 779 780
Wind_Speed
5 3 2 7 7 6 7 7 8 6 5 3 10 10 7 13 9 10 9 9 9 10 15 17 13 10 8 7 7 6 5 2 1 1 3 2 4 4 4 6 7 10 11 12
3 2 6 5 4 4 7 8 3 3 5 3 8 9 9 14 13 10 9 9 10 9 9 19 16 14 12 10 10 7 6 4 2 1 2 3 3 4 4 6 8 10 10 11
4 4 2 3 4 5 6 2 6 5 3 9 6 7 7 8 9 10 9 7 9 11 11 12 20 18 14 12 12 10 8 5 3 3 1 3 4 5 3 7 8 10 9 9
3 2 2 3 5 3 4 5 4 6 6 2 6 4 5 9 7 10 10 10 9 10 9 12 20 18 16 13 11 10 8 6 5 3 2 2 3 5 5 6 8 9 9 9
1 2 2 4 3 3 2 2 3 5 6 8 6 1 2 10 8 11 11 11 10 10 10 9 19 19 17 16 14 11 10 8 7 6 5 4 4 4 5 6 8 8 9 9
4 1 2 4 2 2 2 4 7 4 3 3 5 4 4 6 8 8 11 10 11 10 10 14 18 19 18 16 15 14 12 10 9 8 6 6 6 6 7 7 9 8 10 10
4 4 4 2 3 3 4 3 0 2 1 2 5 2 9 7 6 6 9 10 10 10 10 10 15 20 18 18 17 15 14 13 11 10 8 8 8 8 8 8 8 9 10 10
4 3 4 3 1 2 3 3 1 2 4 3 2 5 3 5 9 7 6 9 10 9 8 9 17 23 22 21 21 19 17 15 12 11 10 10 10 9 8 8 8 11 11 12
3 3 2 4 3 1 2 2 2 2 3 2 5 4 0 4 4 6 5 3 9 10 9 9 17 23 23 23 23 22 18 15 13 12 11 10 10 9 9 9 10 11 11 12
2 1 1 3 3 2 2 3 1 2 1 4 5 4 3 6 9 9 9 10 9 9 10 9 17 21 22 22 22 21 19 17 15 14 13 11 10 10 10 10 10 10 12 12
4 2 3 2 5 2 2 2 3 1 2 3 3 5 2 6 9 10 10 10 11 10 10 9 17 22 23 21 22 22 20 18 17 16 15 13 12 11 10 11 10 11 11 13
0 3 2 2 4 3 1 4 2 3 2 3 3 6 2 5 4 7 10 10 10 9 10 9 19 23 24 23 22 23 22 22 20 18 16 15 13 12 12 11 10 11 12 12
3 4 2 1 1 1 3 4 4 3 3 5 3 5 3 2 4 6 6 9 10 10 10 9 15 20 24 26 25 23 23 22 21 19 18 17 16 14 13 12 11 11 11 12
2 3 4 3 1 4 4 4 5 5 3 4 7 10 10 8 7 7 9 9 10 11 11 9 8 17 24 27 28 27 24 23 22 21 20 19 17 15 14 13 12 12 11 12
2 4 6 8 3 4 5 7 9 10 15 7 13 9 15 11 12 10 8 10 10 11 12 12 10 12 23 26 28 28 28 26 25 24 22 22 18 17 15 14 13 11 11 11
4 3 2 5 8 8 6 10 10 16 17 14 16 21 17 11 6 8 9 8 9 9 13 13 12 16 21 25 28 29 29 29 27 26 25 22 19 18 17 15 14 13 11 11
7 3 3 4 4 2 6 16 16 7 8 8 9 11 4 10 10 7 8 7 6 7 10 12 13 19 23 27 30 31 30 29 28 27 25 23 21 20 18 16 15 14 12 10
5 5 1 3 4 7 9 5 4 10 11 10 9 11 8 8 7 8 8 6 7 8 8 9 15 21 28 29 29 30 30 28 29 28 26 25 23 22 19 17 16 15 12 12
4 4 1 3 6 11 14 7 6 5 5 8 8 5 5 7 6 3 6 7 5 7 6 13 24 27 28 29 29 30 29 30 29 30 28 26 25 23 21 20 18 16 13 13
5 1 3 3 4 6 0 3 2 4 5 6 4 5 4 6 4 2 4 3 5 10 11 5 11 23 26 28 29 30 30 30 32 32 30 27 25 24 22 20 18 16 15 15
3 2 6 6 5 7 4 7 4 4 6 7 5 3 2 2 3 6 8 6 5 5 9 4 6 19 25 27 29 30 30 32 32 30 28 27 26 25 23 20 18 16 16 15
8 8 4 3 4 9 6 4 7 4 2 6 5 5 3 5 7 7 7 6 6 5 6 6 9 12 19 25 30 30 31 31 28 28 29 28 27 25 24 22 19 18 16 16
6 7 6 9 7 2 7 2 6 3 3 2 3 1 2 4 4 6 6 7 5 7 8 10 13 14 17 24 31 29 31 27 28 28 29 28 26 25 23 21 21 19 17 17
4 5 4 3 8 9 9 9 7 7 7 6 4 3 3 6 6 6 6 5 4 9 11 12 15 18 21 25 30 36 29 27 28 31 29 27 26 24 24 24 22 20 19 19
3 3 7 6 7 9 10 6 7 8 4 0 4 4 6 6 7 7 6 6 9 13 13 15 20 23 25 26 29 32 30 27 31 30 29 27 27 25 25 25 24 23 22 20
5 6 5 5 5 5 2 4 5 3 3 5 7 7 6 6 8 7 7 13 14 16 17 16 22 24 26 25 29 31 32 30 32 28 28 29 28 27 26 24 21 21 20 17
Wind_Direction
192 274 342 29 42 351 314 309 294 104 123 252 238 247 216 179 194 211 208 198 193 186 188 164 163 177 188 191 190 188 188 233 312 344 360 340 4 357 338 340 353 354 356 355
221 68 35 54 35 338 308 295 320 106 135 204 276 270 218 173 193 200 213 201 196 180 167 154 170 186 192 200 184 194 200 204 226 244 311 311 315 319 345 338 348 346 347 350
306 82 54 4 314 289 294 275 2 342 287 213 280 269 219 194 163 185 214 211 194 181 182 166 178 187 192 196 196 196 197 202 216 241 223 297 293 306 255 329 330 340 338 342
45 59 355 308 276 40 299 25 355 314 317 293 167 293 199 184 196 190 202 210 206 192 178 170 172 181 190 196 190 190 203 201 222 236 223 276 293 294 308 311 313 325 325 330
56 163 241 267 44 349 34 350 304 310 289 294 184 219 345 123 219 217 206 202 205 193 172 176 167 176 191 191 192 198 200 207 218 223 233 247 290 293 298 303 307 318 320 323
94 97 347 29 72 350 3 253 215 249 238 265 173 172 225 192 214 208 188 192 189 190 168 174 174 178 187 183 187 194 199 208 213 224 227 246 259 273 287 293 308 311 317 318
144 161 117 276 229 170 244 252 312 283 217 250 53 317 250 176 91 140 163 178 176 176 169 170 168 173 178 184 193 201 204 209 214 220 224 235 248 260 274 286 297 304 310 315
240 262 186 143 1 17 301 336 147 236 337 317 106 241 244 114 92 54 100 159 159 172 176 175 177 179 184 191 196 201 206 209 210 215 223 234 246 258 270 279 281 293 301 307
328 111 79 349 5 60 131 216 2 300 251 332 226 229 147 101 125 147 162 159 179 177 178 177 182 188 190 195 200 203 207 208 211 217 222 234 243 252 263 272 280 287 293 301
17 239 179 117 289 229 264 332 254 284 319 281 299 231 239 215 214 192 202 197 212 188 181 178 184 193 199 202 202 204 207 209 212 217 222 231 238 245 255 266 275 282 291 298
332 220 131 126 187 135 164 235 226 325 173 218 307 280 325 244 197 200 205 202 194 196 187 183 183 192 198 203 201 203 205 207 210 214 218 224 232 241 250 260 269 277 285 294
174 328 257 105 80 65 340 317 238 129 244 243 163 274 303 40 129 179 196 193 187 189 185 182 186 189 192 199 203 203 204 207 212 214 219 220 228 234 244 255 264 270 279 289
156 233 261 177 6 54 217 187 256 73 67 232 148 264 340 162 246 250 237 187 178 181 184 182 183 188 190 195 201 206 208 211 212 212 215 220 224 232 240 249 258 269 277 284
17 275 248 242 108 131 190 217 198 191 158 236 221 263 264 271 239 253 236 226 186 178 180 188 187 192 195 197 200 202 208 212 212 212 216 222 226 232 238 247 252 261 271 280
245 249 248 265 296 180 223 225 192 202 228 220 259 256 279 296 306 290 267 214 194 183 181 188 193 191 195 198 201 204 205 206 208 210 215 222 227 231 236 244 254 261 268 278
203 261 298 272 263 255 239 243 227 217 241 257 265 280 278 278 317 309 290 310 214 188 188 189 190 192 197 197 200 204 205 204 204 207 214 221 224 226 232 241 249 256 261 271
160 219 188 254 270 328 261 238 229 212 211 206 222 240 319 322 315 307 296 300 282 222 187 188 192 197 201 202 200 202 204 203 205 209 213 217 219 222 229 237 244 251 256 264
189 207 277 254 317 249 246 187 221 210 246 220 254 271 291 284 307 306 310 279 297 308 213 190 189 196 203 207 204 203 202 203 206 210 212 215 217 221 226 230 237 247 252 257
229 199 220 197 210 281 293 254 194 181 296 208 228 267 302 307 311 250 8 26 328 305 316 213 203 201 202 203 203 200 199 202 206 211 215 216 215 217 221 226 232 240 247 251
308 291 152 177 199 233 351 152 143 129 258 146 169 232 286 332 5 281 355 338 318 331 318 286 202 194 195 201 201 196 200 202 208 211 214 217 218 219 221 227 233 238 242 250
163 210 213 226 244 262 249 153 165 180 238 175 187 212 227 240 224 290 320 321 321 311 309 262 206 190 197 198 199 200 202 208 211 213 214 216 217 220 222 226 231 234 240 248
161 169 188 194 239 269 140 86 188 191 143 173 195 192 242 265 293 298 304 307 310 275 281 236 220 212 201 201 199 203 208 213 212 212 213 214 215 218 222 224 227 232 236 243
193 178 182 185 208 251 201 255 194 127 142 223 185 230 277 279 269 301 308 315 294 273 251 238 223 223 212 206 206 206 214 211 211 211 212 214 215 217 215 218 223 228 230 237
218 197 206 195 223 246 208 232 234 184 207 227 239 250 269 259 264 272 273 284 286 281 242 235 224 227 225 216 213 218 215 211 211 208 210 211 212 215 219 223 224 225 228 233
215 171 176 245 264 301 294 261 222 197 143 117 272 258 271 232 264 255 276 275 274 279 267 232 225 228 235 228 222 219 215 209 210 209 209 210 213 214 218 221 221 224 231 233
213 201 201 233 190 201 262 101 89 114 255 247 251 268 247 207 244 254 262 266 273 275 278 243 237 237 241 233 227 222 216 208 208 204 206 208 210 212 217 216 222 230 236 229